• Join FlightAware (Why Join?)
  • Login
  • US Flag 
01:21PM EDT


 

Airport Tracker/Info


-or-


 

Live Flight TrackerFlight Track Log ✈ SWA1789 ✈ 10-May-2013 ✈ KCMH - KBWI

Flight Track Log - Related Links

Times and Time Zones

All times are in EDT time to prevent confusion due to time zone crossing. See the SWA1789 flight status page for this flight to view local times or setup timezone preferences in your user account.

Time Position Orientation Groundspeed Altitude Reporting Facility
EDT Latitude Longitude Course Direction KTS MPH feet Rate Location/Type
06:17AM 39.9944 -82.8767 88° East 144 166 1,700  Level Indianapolis Center
06:18AM 39.9958 -82.8222 88° East 220 253 3,200 2,340 Climbing Indianapolis Center
06:19AM 39.9914 -82.7031 93° East 285 328 6,500 2,940 Climbing Indianapolis Center
06:20AM 39.9733 -82.5894 102° East 310 357 9,800 2,820 Climbing Indianapolis Center
06:21AM 39.9794 -82.4639 86° East 341 392 12,200 3,240 Climbing Indianapolis Center
06:22AM 39.9856 -82.3261 87° East 368 423 16,400 3,900 Climbing Indianapolis Center
06:23AM 39.9944 -82.1836 85° East 385 443 20,100 3,540 Climbing Indianapolis Center
06:24AM 40.0033 -82.0331 86° East 405 466 23,600 3,360 Climbing Indianapolis Center
06:25AM 40.0103 -81.8800 87° East 417 480 27,000 2,640 Climbing Indianapolis Center
06:26AM 40.0017 -81.7247 94° East 436 502 29,000 960 Climbing Indianapolis Center
06:27AM 39.9814 -81.5597 99° East 459 528 29,000  Level Indianapolis Center
06:28AM 39.9603 -81.3814 99° East 482 555 29,000  Level Indianapolis Center
06:29AM 39.9425 -81.2244 98° East 484 557 29,000  Level Indianapolis Center
06:30AM 39.9214 -81.0506 99° East 484 557 29,000  Level Indianapolis Center
06:31AM 39.9042 -80.8969 98° East 484 557 29,000  Level Cleveland Center
06:32AM 39.8836 -80.7264 99° East 484 557 29,000  Level Cleveland Center
06:33AM 39.8608 -80.5614 100° East 478 550 29,000  Level Cleveland Center
06:34AM 39.8397 -80.3939 99° East 473 544 29,000 -420 Level Cleveland Center
06:35AM 39.8186 -80.2289 99° East 463 533 28,200 -780 Descending Cleveland Center
06:36AM 39.7842 -79.9742 100° East 452 520 27,000 -480 Descending Washington Center
06:37AM 39.7625 -79.8161 100° East 452 520 27,000  Level Washington Center
06:38AM 39.7411 -79.6556 100° East 452 520 27,000  Level Washington Center
06:39AM 39.7214 -79.4953 99° East 452 520 27,000  Level Washington Center
06:40AM 39.6992 -79.3378 100° East 447 514 27,000 -300 Level Washington Center
06:41AM 39.6769 -79.1803 100° East 447 514 26,500 -1,020 Descending Washington Center
06:42AM 39.6503 -79.0253 103° East 442 509 25,000 -780 Descending Washington Center
06:43AM 39.6111 -78.8589 107° East 437 503 25,000 -60 Level Washington Center
06:44AM 39.5797 -78.7094 105° East 437 503 24,900 -1,320 Descending Washington Center
06:45AM 39.5478 -78.5656 106° East 437 503 22,400 -2,400 Descending Washington Center
06:46AM 39.5139 -78.4214 107° East 425 489 20,100 -2,340 Descending Washington Center
06:47AM 39.4836 -78.2858 106° East 407 468 17,800 -2,460 Descending Washington Center
06:48AM 39.4550 -78.1558 106° East 389 448 15,300 -1,440 Descending Washington Center
06:49AM 39.4264 -78.0283 106° East 378 435 15,000 -180 Descending Washington Center
06:50AM 39.4144 -77.8992 97° East 370 426 15,000  Level Washington Center
06:51AM 39.4231 -77.7678 85° East 362 417 15,000 -180 Level Washington Center
06:52AM 39.4297 -77.6361 86° East 362 417 14,700 -900 Descending Washington Center
06:53AM 39.4381 -77.5047 85° East 362 417 13,200 -1,800 Descending Washington Center
06:54AM 39.4442 -77.3761 86° East 362 417 11,100 -1,140 Descending Washington Center
06:55AM 39.4583 -77.2528 81° East 362 417 11,000 -360 Descending Washington Center
06:56AM 39.4664 -77.1292 85° East 351 404 10,500 -840 Descending Washington Center
06:58AM 39.4667 -76.9833 90° East 309 356 9,300 -1,320 Descending Potomac TRACON
06:59AM 39.4667 -76.9000 90° East 297 342 7,900 -1,620 Descending Potomac TRACON
07:00AM 39.4667 -76.8000 90° East 294 338 6,300 -1,500 Descending Potomac TRACON
07:00AM 39.4667 -76.7000 90° East 291 335 5,100 -900 Descending Potomac TRACON
07:01AM 39.4333 -76.6000 113° Southeast 286 329 4,600 -600 Descending Potomac TRACON
07:02AM 39.3833 -76.5333 134° Southeast 281 323 4,000 -720 Descending Potomac TRACON
07:03AM 39.3167 -76.5000 159° South 261 300 3,200 -540 Descending Potomac TRACON
07:04AM 39.2500 -76.4833 169° South 222 255 3,000 -420 Descending Potomac TRACON
07:05AM 39.2000 -76.5000 194° South 211 243 2,400 -780 Descending Potomac TRACON
07:06AM 39.1500 -76.5500 218° Southwest 196 226 1,500 -480 Descending Potomac TRACON
07:07AM 39.1333 -76.5833 237° Southwest 146 168 1,500 -240 Level Potomac TRACON
07:08AM 39.1333 -76.6333 270° West 126 145 1,100 -540 Descending Potomac TRACON
07:09AM 39.1500 -76.6500 322° Northwest 116 133 500 -600 Descending Potomac TRACON
07:11AM 39.1667 -76.6667 213° Southwest  Level FlightAware Approximate